Location: Izdebno
(52.6670°N, 16.2170°E)
Time: 11:44:02
(UTC+02:00)

Vanguard 2 - Pass Details

Date: 30 January 2023
Orbit: 553 x 2927 km, 32.9° (Epoch: 26 March)

Event Time Altitude Azimuth Distance (km) Brightness Sun altitude
Rises 05:11:21 0° 270° (W) 6,736 - -22.6°
Reaches altitude 10° 05:18:48 10° 252° (WSW) 5,487 - -21.5°
Exits shadow 05:23:21 14° 236° (SW) 4,896 11.1 -20.8°
Maximum altitude 05:26:20 15° 224° (SW) 4,640 11.1 -20.3°
Drops below altitude 10° 05:32:50 10° 194° (SSW) 4,590 11.4 -19.4°
Sets 05:38:05 0° 173° (S) 5,109 11.9 -18.6°
